Photometre #845[NE_1.6_Dp] Rhyl_MO AOT

File : 20210609_845.hum

09/06/2021,05:02:27,TEMP=13.6,BA=5.52,STAT.A,ExtBa=12.70
09/06/2021,05:06:25,TEMP=13.9,BA=5.52,STAT.D,ExtBa=12.60
09/06/2021,05:08:29,TEMP=14.3,BA=5.52,STAT.A,ExtBa=12.60
09/06/2021,05:12:25,TEMP=14.2,BA=5.48,STAT.D,ExtBa=12.60
09/06/2021,05:14:37,TEMP=14.6,BA=5.48,STAT.A,ExtBa=12.50
09/06/2021,05:18:25,TEMP=14.4,BA=5.48,STAT.D,ExtBa=12.60
09/06/2021,05:20:30,TEMP=14.9,BA=5.48,STAT.A,ExtBa=12.50
09/06/2021,05:24:25,TEMP=14.7,BA=5.48,STAT.D,ExtBa=12.60
09/06/2021,05:27:00,TEMP=15.0,BA=5.48,STAT.A,ExtBa=12.50
09/06/2021,05:30:25,TEMP=15.0,BA=5.48,STAT.D,ExtBa=12.60
09/06/2021,05:33:25,TEMP=15.1,BA=5.48,STAT.D,ExtBa=12.60
09/06/2021,05:36:24,TEMP=15.2,BA=5.48,STAT.A,ExtBa=12.60
09/06/2021,05:39:25,TEMP=15.2,BA=5.48,STAT.D,ExtBa=12.60
09/06/2021,05:42:25,TEMP=15.3,BA=5.48,STAT.D,ExtBa=12.60
09/06/2021,05:45:25,TEMP=15.3,BA=5.48,STAT.D,ExtBa=12.60
09/06/2021,05:48:03,TEMP=15.2,BA=5.48,STAT.B,ExtBa=12.60
09/06/2021,05:53:33,TEMP=14.9,BA=5.52,STAT.A,ExtBa=12.60
09/06/2021,06:00:11,TEMP=14.8,BA=5.48,STAT.A,ExtBa=12.60
09/06/2021,06:06:27,TEMP=14.9,BA=5.48,STAT.A,ExtBa=12.60
09/06/2021,06:14:05,TEMP=15.1,BA=5.52,STAT.A,ExtBa=12.60
09/06/2021,06:22:45,TEMP=15.3,BA=5.56,STAT.C,ExtBa=12.60
09/06/2021,06:32:40,TEMP=15.8,BA=5.56,STAT.A,ExtBa=12.70
09/06/2021,06:44:09,TEMP=16.7,BA=5.56,STAT.A,ExtBa=12.70
09/06/2021,06:57:25,TEMP=17.4,BA=5.56,STAT.D,ExtBa=12.70
09/06/2021,06:59:26,TEMP=17.8,BA=5.56,STAT.A,ExtBa=12.60
09/06/2021,07:12:25,TEMP=17.7,BA=5.60,STAT.D,ExtBa=12.70
09/06/2021,07:14:27,TEMP=18.2,BA=5.60,STAT.A,ExtBa=12.60
09/06/2021,07:27:25,TEMP=17.9,BA=5.60,STAT.D,ExtBa=12.70
09/06/2021,07:33:39,TEMP=18.1,BA=5.60,STAT.B,ExtBa=12.70
09/06/2021,07:45:25,TEMP=17.9,BA=5.64,STAT.D,ExtBa=12.70
09/06/2021,07:57:25,TEMP=17.9,BA=5.64,STAT.D,ExtBa=12.80
09/06/2021,08:09:25,TEMP=18.1,BA=5.64,STAT.D,ExtBa=12.80
09/06/2021,08:14:13,TEMP=18.3,BA=5.64,STAT.B,ExtBa=12.80
09/06/2021,08:27:25,TEMP=18.6,BA=5.68,STAT.D,ExtBa=12.90
09/06/2021,08:29:26,TEMP=19.1,BA=5.68,STAT.D,ExtBa=12.80
09/06/2021,08:42:25,TEMP=19.0,BA=5.68,STAT.D,ExtBa=12.80
09/06/2021,08:44:26,TEMP=19.3,BA=5.68,STAT.D,ExtBa=12.70
09/06/2021,08:57:26,TEMP=18.8,BA=5.68,STAT.D,ExtBa=12.90
09/06/2021,08:59:41,TEMP=19.1,BA=5.68,STAT.D,ExtBa=12.70
09/06/2021,09:12:26,TEMP=18.5,BA=5.68,STAT.D,ExtBa=12.80
09/06/2021,09:14:28,TEMP=18.9,BA=5.68,STAT.F,ExtBa=12.80
09/06/2021,09:27:26,TEMP=18.4,BA=5.68,STAT.D,ExtBa=12.80
09/06/2021,09:29:28,TEMP=18.8,BA=5.68,STAT.D,ExtBa=12.80
09/06/2021,09:42:26,TEMP=18.7,BA=5.68,STAT.D,ExtBa=13.00
09/06/2021,09:44:28,TEMP=19.3,BA=5.68,STAT.D,ExtBa=13.00
09/06/2021,09:54:26,TEMP=19.9,BA=5.68,STAT.D,ExtBa=13.20
09/06/2021,09:58:33,TEMP=20.2,BA=5.68,STAT.D,ExtBa=13.10
09/06/2021,10:09:26,TEMP=20.1,BA=5.68,STAT.D,ExtBa=13.00
09/06/2021,10:13:35,TEMP=20.1,BA=5.68,STAT.F,ExtBa=12.90
09/06/2021,10:24:26,TEMP=19.7,BA=5.68,STAT.D,ExtBa=12.80
09/06/2021,10:28:33,TEMP=19.7,BA=5.68,STAT.D,ExtBa=12.80
09/06/2021,10:39:26,TEMP=19.6,BA=5.68,STAT.D,ExtBa=12.90
09/06/2021,10:43:33,TEMP=19.9,BA=5.68,STAT.D,ExtBa=12.90
09/06/2021,10:54:26,TEMP=20.8,BA=5.68,STAT.D,ExtBa=13.10
09/06/2021,10:58:33,TEMP=21.2,BA=5.68,STAT.D,ExtBa=13.10
09/06/2021,11:12:26,TEMP=21.5,BA=5.68,STAT.D,ExtBa=13.20
09/06/2021,11:14:32,TEMP=21.9,BA=5.68,STAT.F,ExtBa=13.20
09/06/2021,11:31:22,TEMP=24.6,BA=5.68,STAT.D,ExtBa=13.50
09/06/2021,11:38:30,TEMP=24.5,BA=5.68,STAT.D,ExtBa=13.70
09/06/2021,11:42:26,TEMP=24.7,BA=5.68,STAT.D,ExtBa=13.40
09/06/2021,11:44:30,TEMP=25.1,BA=5.68,STAT.D,ExtBa=13.30
09/06/2021,11:54:26,TEMP=23.6,BA=5.68,STAT.D,ExtBa=13.10
09/06/2021,11:58:33,TEMP=23.2,BA=5.68,STAT.D,ExtBa=13.10
09/06/2021,12:09:26,TEMP=22.7,BA=5.68,STAT.D,ExtBa=13.20
09/06/2021,12:13:35,TEMP=22.6,BA=5.68,STAT.F,ExtBa=13.10
09/06/2021,12:24:26,TEMP=21.9,BA=5.68,STAT.D,ExtBa=13.10
09/06/2021,12:28:33,TEMP=21.9,BA=5.68,STAT.D,ExtBa=13.00
09/06/2021,12:39:26,TEMP=21.3,BA=5.68,STAT.D,ExtBa=13.50
09/06/2021,12:42:26,TEMP=21.8,BA=5.68,STAT.D,ExtBa=13.70
09/06/2021,12:44:27,TEMP=22.5,BA=5.68,STAT.D,ExtBa=13.70